Tracking 20753 objects as of 7-Jun-2020
HD Live streaming from Space Station
objects crossing your sky now
Track the most recent launched group of Starlink satellites

RADUGA 1-5

Track RADUGA 1-5 now!
RADUGA 1-5 is classified as:


NORAD ID: 26477
Int'l Code: 2000-049A
Perigee: 35,762.7 km
Apogee: 35,819.0 km
Inclination: 12.7 °
Period: 1,435.9 minutes
Semi major axis: 42161 km
RCS: 10 m2 (large)
Launch date: August 28, 2000
Source: Commonwealth of Independent States (former USSR) (CIS)
Launch site: TYURATAM MISSILE AND SPACE COMPLEX (TTMTR)

Military communication.
aabbcc
Your satellite tracking list
Your tracking list is empty




NASA's NSSDC Master Catalog

Two Line Element Set (TLE):
1 26477U 00049A   20158.69704049  .00000100  00000-0  00000+0 0  9994
2 26477  12.6737  24.0755 0006670  12.4642 153.7892  1.00282145 72417
Source of the keplerian elements: AFSPC